This is the latest recevied weather packets stored in our database for station/object KD7AWQ. If no packets are shown the sender has not sent any weather packets the latest 10 day(s).
| Time | Temp. | Humidity | Pressure | Rain* | Wind** | Luminosity | Snow |
|---|---|---|---|---|---|---|---|
| 1777874115 | 18.89° C | 24% | 1183 hPa | 0 mm | - | 0 W/m² | - |
| 1777873812 | 18.89° C | 23% | 1183 hPa | 0 mm | - | 0 W/m² | - |
| 1777873508 | 18.89° C | 23% | 1183.1 hPa | 0 mm | - | 0 W/m² | - |
| 1777873206 | 19.44° C | 22% | 1183.1 hPa | 0 mm | - | 0 W/m² | - |
| 1777872902 | 20° C | 22% | 1182.9 hPa | 0 mm | - | 0 W/m² | - |
| 1777872600 | 20° C | 21% | 1183.5 hPa | 0 mm | - | 0 W/m² | - |
| 1777872297 | 20° C | 21% | 1183.6 hPa | 0 mm | - | 0 W/m² | - |
| 1777871995 | 21.11° C | 20% | 1183.2 hPa | 0 mm | - | 0 W/m² | - |
| 1777871691 | 21.11° C | 20% | 1183.5 hPa | 0 mm | - | 0 W/m² | - |
| 1777871388 | 21.11° C | 19% | 1183.3 hPa | 0 mm | - | 0 W/m² | - |
| 1777871085 | 21.11° C | 19% | 1183.2 hPa | 0 mm | - | 0 W/m² | - |
| 1777870782 | 21.67° C | 19% | 1183.1 hPa | 0 mm | - | 0 W/m² | - |
| 1777870478 | 21.67° C | 19% | 1183.1 hPa | 0 mm | - | 0 W/m² | - |
| 1777870174 | 21.67° C | 18% | 1183.2 hPa | 0 mm | - | 0 W/m² | - |
| 1777869872 | 21.67° C | 18% | 1182.9 hPa | 0 mm | - | 0 W/m² | - |
| 1777869569 | 21.11° C | 17% | 1183 hPa | 0 mm | - | 0 W/m² | - |
| 1777869266 | 21.11° C | 17% | 1182.8 hPa | 0 mm | - | 0 W/m² | - |
| 1777868963 | 21.11° C | 17% | 1182.7 hPa | 0 mm | - | 0 W/m² | - |
| 1777868659 | 21.11° C | 18% | 1182.7 hPa | 0 mm | - | 0 W/m² | - |
| 1777868356 | 21.11° C | 18% | 1182.6 hPa | 0 mm | - | 0 W/m² | - |
| 1777868053 | 21.11° C | 18% | 1182.7 hPa | 0 mm | - | 0 W/m² | - |
| 1777867748 | 21.11° C | 18% | 1182.3 hPa | 0 mm | - | 0 W/m² | - |
| 1777867446 | 21.67° C | 18% | 1182 hPa | 0 mm | - | 0 W/m² | - |
| 1777867142 | 21.67° C | 17% | 1182.2 hPa | 0 mm | - | 0 W/m² | - |
| 1777866840 | 22.22° C | 17% | 1182.2 hPa | 0 mm | - | 0 W/m² | - |
* Rain latest hour (hover to see other rain measurements)
** Current wind speed in m/s (hover to see current wind gust speed)